Washington State Current Weather Observations

 
 ASUS46 KSEW 202210
 RWRWA 
 
 WASHINGTON REGIONAL WEATHER ROUNDUP
 NATIONAL WEATHER SERVICE SEATTLE WA
 300 PM PDT SUN MAY 20 2018
 
 NOTE:"FAIR" INDICATES FEW OR NO CLOUDS BELOW 12,000 FEET WITH NO 
 SIGNIFICANT WEATHER AND/OR OBSTRUCTIONS TO VISIBILITY.
 
 WAZ507-509-555>559-202300-
 SEATTLE, TACOMA, EVERETT, AND VICINITY
   
 CITY           SKY/WX    TMP DP  RH WIND       PRES   REMARKS
 EVERETT        CLOUDY    58  51  78 N6        30.07F                  
 BOEING FIELD   CLOUDY    65  47  52 CALM      30.04F                  
 RENTON         CLOUDY    66  48  52 S9        30.04F                  
 SEATAC AIRPORT CLOUDY    65  53  65 S5        30.05F                  
 JBLM-MCCHORD   CLOUDY    62  54  73 N6        30.05F                  
 PUYALLUP       CLOUDY    61  52  72 CALM      30.05F                  
 BREMERTON      CLOUDY    64  51  62 E8        30.04F                  
 JBLM-FT LEWIS  PTSUNNY   63  53  68 CALM      30.04F                  
 TACOMA NARROWS PTSUNNY   61  46  57 SE6       30.05F                  
 
WAZ001-503-506-510-514-515-202300- NORTH INTERIOR CITY SKY/WX TMP DP RH WIND PRES REMARKS BELLINGHAM SUNNY 62 48 60 S10G18 30.05S FRIDAY HARBOR SUNNY 63 47 55 SW10G18 30.06S EASTSOUND SUNNY 64 50 59 S8G17 30.04R PORT ANGELES PTSUNNY 58 49 72 NW12 30.08S EDIZ HOOK CLOUDY 57 48 73 W15G23 30.07F PORT TOWNSEND CLOUDY 57 48 72 CALM 30.08S NAS WHIDBEY PTSUNNY 61 49 64 SW13 30.11S ARLINGTON CLOUDY 59 51 75 CALM 30.07F BURLINGTON CLOUDY 61 50 67 S5 30.07S
WAZ020-022-039-040-504-511-512-202300- SOUTHWEST INTERIOR CITY SKY/WX TMP DP RH WIND PRES REMARKS SHELTON CLOUDY 65 47 52 SW10 30.03S OLYMPIA PTSUNNY 67 45 45 S9 30.03F CHEHALIS CLOUDY 66 50 55 VRB5G13 30.04F KELSO SUNNY 67 48 50 VRB5 30.04F VANCOUVER PTSUNNY 67 49 52 SW8 30.02F SCAPPOOSE, OR MOSUNNY 68 46 45 VRB6 30.02F PORTLAND, OR MOSUNNY 68 45 43 NW5 30.03F
WAZ021-516-517-202300- WASHINGTON COAST CITY SKY/WX TMP DP RH WIND PRES REMARKS FORKS CLOUDY 57 48 72 NW9 30.09S HOQUIAM CLOUDY 60 50 69 SW14 30.08F ASTORIA, OR MOSUNNY 60 50 69 NW15 30.08S
WAZ019-023-024-040-567>569-202300- CASCADE MOUNTAINS AND COLUMBIA GORGE CITY SKY/WX TMP DP RH WIND PRES REMARKS STAMPEDE PASS NOT AVBL TROUTDALE, OR MOSUNNY 69 46 43 VRB6 30.02F HOOD RIVER, OR CLEAR 70 45 40 W10G20 29.95F THE DALLES, OR MOSUNNY 75 46 35 NW20G29 29.90F
WAZ026-027-041>044-520-521-202300- EAST SLOPES CITY SKY/WX TMP DP RH WIND PRES REMARKS OMAK MOSUNNY 74 48 39 SW5 29.88F WENATCHEE MOSUNNY 75 43 31 VRB6 29.87F ELLENSBURG PTSUNNY 74 49 41 NW17 29.90F YAKIMA PTSUNNY 76 50 40 W7 29.88S SUNNYSIDE ARPT MOCLDY 70 54 56 SW14 29.87F YAKIMA TC MOCLDY 75 48 38 CALM 29.87S
WAZ028-034-035-202300- COLUMBIA BASIN CITY SKY/WX TMP DP RH WIND PRES REMARKS EPHRATA MOSUNNY 76 45 33 VRB3 29.86F MOSES LAKE PTSUNNY 76 48 37 N6 29.87F PASCO PTSUNNY 79 51 37 NW8 29.86F RICHLAND ARPT CLOUDY 77 51 41 S3 29.87S HERMISTON, OR PTSUNNY 78 53 41 VRB6 29.87F
WAZ036>038-202300- NORTHEAST WASHINGTON CITY SKY/WX TMP DP RH WIND PRES REMARKS SPOKANE GEIGER MOSUNNY 72 45 37 CALM 29.90F SPOKANE FELTS MOSUNNY 75 44 33 CALM 29.88F FAIRCHILD AFB MOSUNNY 72 47 40 NW7 29.90F COEURDALENE,ID MOSUNNY 76 45 33 E5 29.89F DEER PARK MOSUNNY 74 46 36 VRB6 29.89F
WAZ029>033-202300- SOUTHEAST WASHINGTON CITY SKY/WX TMP DP RH WIND PRES REMARKS PULLMAN PTSUNNY 70 57 63 NW8 29.92F LEWISTON, ID LGT RAIN 73 57 57 W7 29.86F WALLA WALLA CLOUDY 71 55 56 CALM 29.89F PENDLETON, OR PTSUNNY 71 53 52 N6 29.89F

Data from: http://www.wrh.noaa.gov/sew/get.php?pil=RWR&sid=WA&version=0&format=printer

Current Observations

Current Weather Conditions by Major Highway
Washington State Current Weather Observations   …  Oregon State Current Weather Observation



48 Hour Forecast


Seattle  …  Vancouver  …  Portland
————————————————————————————————————————
Bend  …  Spokane  …  Richland  …  Pendleton  …  Blue Mountains I-84  …  Yakima
————————————————————————————————————————
Goldendale, Washington Higher Elevations  …  Dallesport Airport - Goldendale  …  Bingen - White Salmon - Hood River  …  Index





Top of Page